Time,TemperatureF,DewpointF,PressureIn,WindDirection,WindDirectionDegrees,WindSpeedMPH,WindSpeedGustMPH,Humidity,HourlyPrecipIn,Conditions,Clouds,dailyrainin,SoftwareType,DateUTC
2013-02-24 00:05:00,-22.3,-29.5,29.33,NNE,19,0.0,0.0,68,0.00,,,0.00,Wunderground v.1.15,2013-02-24 09:05:00,
2013-02-24 00:15:00,-22.3,-30.1,29.33,NNE,19,1.0,1.0,66,0.00,,,0.00,Wunderground v.1.15,2013-02-24 09:15:00,
2013-02-24 00:25:00,-21.4,-28.6,29.33,NNE,19,1.0,1.0,68,0.00,,,0.00,Wunderground v.1.15,2013-02-24 09:25:00,
2013-02-24 00:35:00,-22.3,-30.1,29.34,NNE,19,0.0,1.0,66,0.00,,,0.00,Wunderground v.1.15,2013-02-24 09:35:00,
2013-02-24 00:45:00,-20.8,-28.1,29.34,NNE,19,1.0,2.0,68,0.00,,,0.00,Wunderground v.1.15,2013-02-24 09:45:00,
2013-02-24 00:50:00,-22.0,-29.8,29.34,NNE,19,0.0,1.0,66,0.00,,,0.00,Wunderground v.1.15,2013-02-24 09:50:00,
2013-02-24 01:00:00,-20.5,-27.8,29.35,NNE,19,2.0,2.0,68,0.00,,,0.00,Wunderground v.1.15,2013-02-24 10:00:00,
2013-02-24 01:05:00,-21.4,-29.2,29.35,NNE,19,1.0,2.0,66,0.00,,,0.00,Wunderground v.1.15,2013-02-24 10:05:00,
2013-02-24 01:15:00,-22.5,-30.2,29.35,NNE,19,1.0,1.0,66,0.00,,,0.00,Wunderground v.1.15,2013-02-24 10:15:00,
2013-02-24 01:25:00,-21.7,-29.2,29.35,NNE,19,1.0,1.0,67,0.00,,,0.00,Wunderground v.1.15,2013-02-24 10:25:00,
2013-02-24 01:35:00,-22.9,-30.6,29.36,NNE,19,0.0,1.0,66,0.00,,,0.00,Wunderground v.1.15,2013-02-24 10:35:00,
2013-02-24 01:40:00,-22.9,-30.6,29.36,NNE,19,0.0,0.0,66,0.00,,,0.00,Wunderground v.1.15,2013-02-24 10:40:00,
2013-02-24 01:50:00,-22.9,-30.6,29.36,NNE,19,0.0,0.0,66,0.00,,,0.00,Wunderground v.1.15,2013-02-24 10:50:00,
2013-02-24 02:00:00,-22.3,-29.8,29.36,NNE,19,0.0,0.0,67,0.00,,,0.00,Wunderground v.1.15,2013-02-24 11:00:00,
2013-02-24 02:10:00,-22.3,-30.1,29.36,NNE,19,0.0,0.0,66,0.00,,,0.00,Wunderground v.1.15,2013-02-24 11:10:00,
2013-02-24 02:15:00,-22.9,-30.6,29.36,NNE,19,0.0,0.0,66,0.00,,,0.00,Wunderground v.1.15,2013-02-24 11:15:00,
2013-02-24 02:25:00,-24.2,-31.9,29.36,NNE,19,0.0,0.0,66,0.00,,,0.00,Wunderground v.1.15,2013-02-24 11:25:00,
2013-02-24 02:35:00,-23.6,-31.0,29.36,NNE,19,0.0,0.0,67,0.00,,,0.00,Wunderground v.1.15,2013-02-24 11:35:00,
2013-02-24 02:45:00,-21.7,-28.9,29.37,NNE,19,0.0,2.0,68,0.00,,,0.00,Wunderground v.1.15,2013-02-24 11:45:00,
2013-02-24 02:50:00,-21.1,-28.4,29.37,NNE,19,1.0,1.0,68,0.00,,,0.00,Wunderground v.1.15,2013-02-24 11:50:00,
2013-02-24 03:00:00,-22.5,-30.2,29.37,NNE,19,0.0,0.0,66,0.00,,,0.00,Wunderground v.1.15,2013-02-24 12:00:00,
2013-02-24 03:10:00,-23.9,-31.9,29.37,NNE,19,0.0,0.0,65,0.00,,,0.00,Wunderground v.1.15,2013-02-24 12:10:00,
2013-02-24 03:15:00,-24.2,-31.9,29.37,NNE,19,0.0,0.0,66,0.00,,,0.00,Wunderground v.1.15,2013-02-24 12:15:00,
2013-02-24 03:20:00,-24.2,-31.9,29.37,NNE,19,0.0,0.0,66,0.00,,,0.00,Wunderground v.1.15,2013-02-24 12:20:00,
2013-02-24 03:30:00,-24.9,-32.8,29.38,NNE,19,0.0,0.0,65,0.00,,,0.00,Wunderground v.1.15,2013-02-24 12:30:00,
2013-02-24 03:40:00,-23.6,-31.0,29.38,NNE,19,0.0,0.0,67,0.00,,,0.00,Wunderground v.1.15,2013-02-24 12:40:00,
2013-02-24 03:45:00,-24.6,-32.5,29.38,NNE,19,0.0,1.0,65,0.00,,,0.00,Wunderground v.1.15,2013-02-24 12:45:00,
2013-02-24 03:50:00,-26.0,-34.2,29.38,NNE,19,0.0,1.0,64,0.00,,,0.00,Wunderground v.1.15,2013-02-24 12:50:00,
2013-02-24 04:00:00,-26.6,-34.5,29.39,NNE,19,0.0,0.0,65,0.00,,,0.00,Wunderground v.1.15,2013-02-24 13:00:00,
2013-02-24 04:10:00,-27.0,-35.1,29.39,NNE,19,0.0,0.0,64,0.00,,,0.00,Wunderground v.1.15,2013-02-24 13:10:00,
2013-02-24 04:20:00,-26.0,-33.3,29.39,NNE,19,0.0,0.0,67,0.00,,,0.00,Wunderground v.1.15,2013-02-24 13:20:00,
2013-02-24 04:30:00,-26.6,-34.7,29.39,NNE,19,0.0,1.0,64,0.00,,,0.00,Wunderground v.1.15,2013-02-24 13:30:00,
2013-02-24 04:40:00,-24.9,-32.3,29.39,NNE,19,2.0,2.0,67,0.00,,,0.00,Wunderground v.1.15,2013-02-24 13:40:00,
2013-02-24 04:45:00,-22.9,-29.8,29.39,NNE,19,3.0,3.0,69,0.00,,,0.00,Wunderground v.1.15,2013-02-24 13:45:00,
2013-02-24 04:55:00,-23.2,-31.2,29.39,NNE,19,0.0,2.0,65,0.00,,,0.00,Wunderground v.1.15,2013-02-24 13:55:00,
2013-02-24 05:05:00,-24.2,-31.9,29.39,NNE,19,0.0,1.0,66,0.00,,,0.00,Wunderground v.1.15,2013-02-24 14:05:00,
2013-02-24 05:15:00,-23.6,-31.3,29.39,NNE,19,0.0,0.0,66,0.00,,,0.00,Wunderground v.1.15,2013-02-24 14:15:00,
2013-02-24 05:25:00,-25.3,-33.5,29.39,NNE,19,0.0,0.0,64,0.00,,,0.00,Wunderground v.1.15,2013-02-24 14:25:00,
2013-02-24 05:30:00,-25.6,-33.5,29.40,NNE,19,0.0,0.0,65,0.00,,,0.00,Wunderground v.1.15,2013-02-24 14:30:00,
2013-02-24 05:40:00,-25.6,-33.5,29.40,NNE,19,0.0,0.0,65,0.00,,,0.00,Wunderground v.1.15,2013-02-24 14:40:00,
2013-02-24 05:50:00,-25.3,-33.2,29.41,NNE,19,0.0,0.0,65,0.00,,,0.00,Wunderground v.1.15,2013-02-24 14:50:00,
2013-02-24 06:00:00,-26.3,-34.4,29.41,NNE,19,0.0,1.0,64,0.00,,,0.00,Wunderground v.1.15,2013-02-24 15:00:00,
2013-02-24 06:10:00,-24.6,-32.0,29.41,NNE,19,0.0,0.0,67,0.00,,,0.00,Wunderground v.1.15,2013-02-24 15:10:00,
2013-02-24 06:15:00,-23.6,-31.0,29.42,NNE,19,0.0,0.0,67,0.00,,,0.00,Wunderground v.1.15,2013-02-24 15:15:00,
2013-02-24 06:25:00,-21.7,-29.2,29.42,NNE,19,0.0,1.0,67,0.00,,,0.00,Wunderground v.1.15,2013-02-24 15:25:00,
2013-02-24 06:35:00,-22.9,-30.6,29.42,NNE,19,0.0,1.0,66,0.00,,,0.00,Wunderground v.1.15,2013-02-24 15:35:00,
2013-02-24 06:45:00,-23.6,-31.3,29.42,NNE,19,0.0,0.0,66,0.00,,,0.00,Wunderground v.1.15,2013-02-24 15:45:00,
2013-02-24 06:50:00,-23.6,-31.3,29.42,NNE,19,0.0,0.0,66,0.00,,,0.00,Wunderground v.1.15,2013-02-24 15:50:00,
2013-02-24 07:00:00,-24.9,-32.8,29.42,NNE,19,0.0,0.0,65,0.00,,,0.00,Wunderground v.1.15,2013-02-24 16:00:00,
2013-02-24 07:10:00,-26.3,-34.7,29.42,NNE,19,0.0,0.0,63,0.00,,,0.00,Wunderground v.1.15,2013-02-24 16:10:00,
2013-02-24 07:15:00,-26.6,-34.7,29.43,NNE,19,0.0,0.0,64,0.00,,,0.00,Wunderground v.1.15,2013-02-24 16:15:00,
2013-02-24 07:25:00,-26.3,-34.2,29.43,NNE,19,0.0,0.0,65,0.00,,,0.00,Wunderground v.1.15,2013-02-24 16:25:00,
2013-02-24 07:35:00,-27.0,-35.1,29.44,NNE,19,0.0,0.0,64,0.00,,,0.00,Wunderground v.1.15,2013-02-24 16:35:00,
2013-02-24 07:40:00,-27.7,-36.1,29.44,NNE,19,0.0,0.0,63,0.00,,,0.00,Wunderground v.1.15,2013-02-24 16:40:00,
2013-02-24 07:50:00,-27.0,-35.1,29.44,NNE,19,0.0,0.0,64,0.00,,,0.00,Wunderground v.1.15,2013-02-24 16:50:00,
2013-02-24 08:00:00,-27.3,-35.1,29.44,NNE,19,0.0,0.0,65,0.00,,,0.00,Wunderground v.1.15,2013-02-24 17:00:00,
2013-02-24 08:10:00,-26.6,-34.7,29.44,NNE,19,0.0,0.0,64,0.00,,,0.00,Wunderground v.1.15,2013-02-24 17:10:00,
2013-02-24 08:15:00,-27.0,-35.1,29.44,NNE,19,0.0,0.0,64,0.00,,,0.00,Wunderground v.1.15,2013-02-24 17:15:00,
2013-02-24 08:25:00,-28.7,-37.3,29.44,NNE,19,0.0,0.0,62,0.00,,,0.00,Wunderground v.1.15,2013-02-24 17:25:00,
2013-02-24 08:35:00,-28.4,-36.5,29.45,NNE,19,0.0,0.0,64,0.00,,,0.00,Wunderground v.1.15,2013-02-24 17:35:00,
2013-02-24 08:45:00,-28.0,-36.1,29.46,NNE,19,0.0,0.0,64,0.00,,,0.00,Wunderground v.1.15,2013-02-24 17:45:00,
2013-02-24 08:50:00,-28.0,-36.4,29.46,NNE,19,0.0,0.0,63,0.00,,,0.00,Wunderground v.1.15,2013-02-24 17:50:00,
2013-02-24 09:00:00,-28.0,-36.1,29.46,NNE,19,0.0,0.0,64,0.00,,,0.00,Wunderground v.1.15,2013-02-24 18:00:00,
2013-02-24 09:10:00,-27.3,-35.4,29.46,NNE,19,0.0,1.0,64,0.00,,,0.00,Wunderground v.1.15,2013-02-24 18:10:00,
2013-02-24 09:20:00,-27.0,-35.1,29.47,NNE,19,0.0,0.0,64,0.00,,,0.00,Wunderground v.1.15,2013-02-24 18:20:00,
2013-02-24 09:30:00,-28.4,-37.0,29.47,NNE,19,0.0,0.0,62,0.00,,,0.00,Wunderground v.1.15,2013-02-24 18:30:00,
2013-02-24 09:40:00,-28.4,-36.5,29.47,NNE,19,0.0,0.0,64,0.00,,,0.00,Wunderground v.1.15,2013-02-24 18:40:00,
2013-02-24 09:50:00,-27.3,-35.4,29.47,NNE,19,1.0,3.0,64,0.00,,,0.00,Wunderground v.1.15,2013-02-24 18:50:00,
2013-02-24 10:00:00,-27.0,-35.1,29.48,NNE,19,0.0,0.0,64,0.00,,,0.00,Wunderground v.1.15,2013-02-24 19:00:00,
2013-02-24 10:10:00,-26.6,-34.7,29.48,NNE,19,0.0,0.0,64,0.00,,,0.00,Wunderground v.1.15,2013-02-24 19:10:00,
2013-02-24 10:15:00,-26.3,-34.4,29.49,NNE,19,0.0,0.0,64,0.00,,,0.00,Wunderground v.1.15,2013-02-24 19:15:00,
2013-02-24 10:20:00,-25.3,-33.2,29.49,NNE,19,0.0,2.0,65,0.00,,,0.00,Wunderground v.1.15,2013-02-24 19:20:00,
2013-02-24 10:30:00,-23.6,-31.6,29.49,NNE,19,0.0,0.0,65,0.00,,,0.00,Wunderground v.1.15,2013-02-24 19:30:00,
2013-02-24 10:40:00,-22.9,-30.9,29.49,NNE,19,0.0,2.0,65,0.00,,,0.00,Wunderground v.1.15,2013-02-24 19:40:00,
2013-02-24 10:50:00,-23.2,-31.2,29.49,NNE,19,0.0,0.0,65,0.00,,,0.00,Wunderground v.1.15,2013-02-24 19:50:00,
2013-02-24 10:55:00,-22.9,-30.6,29.49,NNE,19,0.0,0.0,66,0.00,,,0.00,Wunderground v.1.15,2013-02-24 19:55:00,
2013-02-24 11:10:00,-21.1,-28.9,29.50,NNE,19,0.0,0.0,66,0.00,,,0.00,Wunderground v.1.15,2013-02-24 20:10:00,
2013-02-24 11:15:00,-20.8,-28.6,29.50,NNE,19,0.0,0.0,66,0.00,,,0.00,Wunderground v.1.15,2013-02-24 20:15:00,
2013-02-24 11:25:00,-19.3,-26.9,29.50,NNE,19,0.0,0.0,67,0.00,,,0.00,Wunderground v.1.15,2013-02-24 20:25:00,
2013-02-24 11:35:00,-18.7,-26.6,29.51,NNE,19,0.0,0.0,66,0.00,,,0.00,Wunderground v.1.15,2013-02-24 20:35:00,
2013-02-24 11:45:00,-18.1,-25.7,29.51,NNE,19,0.0,2.0,67,0.00,,,0.00,Wunderground v.1.15,2013-02-24 20:45:00,
2013-02-24 11:55:00,-16.9,-24.6,29.51,NNE,19,1.0,2.0,67,0.00,,,0.00,Wunderground v.1.15,2013-02-24 20:55:00,
2013-02-24 12:05:00,-15.8,-23.3,29.52,NNE,19,0.0,0.0,68,0.00,,,0.00,Wunderground v.1.15,2013-02-24 21:05:00,
2013-02-24 12:15:00,-15.6,-23.3,29.52,NNE,19,1.0,2.0,67,0.00,,,0.00,Wunderground v.1.15,2013-02-24 21:15:00,
2013-02-24 12:25:00,-15.3,-23.1,29.52,NNE,19,1.0,1.0,67,0.00,,,0.00,Wunderground v.1.15,2013-02-24 21:25:00,
2013-02-24 12:35:00,-14.6,-22.4,29.53,NNE,19,1.0,1.0,67,0.00,,,0.00,Wunderground v.1.15,2013-02-24 21:35:00,
2013-02-24 12:45:00,-13.8,-21.9,29.53,NNE,19,0.0,1.0,66,0.00,,,0.00,Wunderground v.1.15,2013-02-24 21:45:00,
2013-02-24 12:55:00,-13.3,-21.4,29.53,NNE,19,0.0,1.0,66,0.00,,,0.00,Wunderground v.1.15,2013-02-24 21:55:00,
2013-02-24 13:05:00,-13.0,-21.4,29.53,NNE,19,0.0,2.0,65,0.00,,,0.00,Wunderground v.1.15,2013-02-24 22:05:00,
2013-02-24 13:15:00,-12.0,-20.8,29.53,NNE,19,0.0,0.0,64,0.00,,,0.00,Wunderground v.1.15,2013-02-24 22:15:00,
2013-02-24 13:25:00,-10.5,-19.6,29.53,NNE,19,0.0,0.0,63,0.00,,,0.00,Wunderground v.1.15,2013-02-24 22:25:00,
2013-02-24 13:35:00,-9.6,-19.4,29.53,NNE,19,0.0,0.0,61,0.00,,,0.00,Wunderground v.1.15,2013-02-24 22:35:00,
2013-02-24 13:45:00,-9.1,-19.6,29.54,NNE,19,0.0,0.0,59,0.00,,,0.00,Wunderground v.1.15,2013-02-24 22:45:00,
2013-02-24 13:50:00,-8.9,-20.1,29.54,NNE,19,0.0,0.0,57,0.00,,,0.00,Wunderground v.1.15,2013-02-24 22:50:00,
2013-02-24 14:00:00,-12.0,-23.7,29.55,NNE,19,0.0,1.0,55,0.00,,,0.00,Wunderground v.1.15,2013-02-24 23:00:00,
2013-02-24 14:05:00,-12.2,-23.2,29.55,NNE,19,0.0,1.0,57,0.00,,,0.00,Wunderground v.1.15,2013-02-24 23:05:00,
2013-02-24 14:15:00,-10.3,-21.0,29.55,NNE,19,0.0,0.0,58,0.00,,,0.00,Wunderground v.1.15,2013-02-24 23:15:00,
2013-02-24 14:25:00,-9.3,-21.1,29.55,NNE,19,0.0,0.0,55,0.00,,,0.00,Wunderground v.1.15,2013-02-24 23:25:00,
2013-02-24 14:35:00,-8.4,-20.3,29.55,NNE,19,0.0,0.0,55,0.00,,,0.00,Wunderground v.1.15,2013-02-24 23:35:00,
2013-02-24 14:45:00,-8.2,-20.1,29.55,NNE,19,0.0,0.0,55,0.00,,,0.00,Wunderground v.1.15,2013-02-24 23:45:00,
2013-02-24 14:55:00,-8.2,-20.1,29.55,NNE,19,0.0,0.0,55,0.00,,,0.00,Wunderground v.1.15,2013-02-24 23:55:00,
2013-02-24 15:00:00,-8.2,-20.1,29.55,NNE,19,0.0,0.0,55,0.00,,,0.00,Wunderground v.1.15,2013-02-25 00:00:00,
2013-02-24 15:10:00,-9.1,-20.6,29.55,NNE,19,0.0,0.0,56,0.00,,,0.00,Wunderground v.1.15,2013-02-25 00:10:00,
2013-02-24 15:20:00,-9.3,-20.8,29.55,NNE,19,0.0,0.0,56,0.00,,,0.00,Wunderground v.1.15,2013-02-25 00:20:00,
2013-02-24 15:30:00,-8.4,-19.9,29.55,NNE,19,0.0,0.0,56,0.00,,,0.00,Wunderground v.1.15,2013-02-25 00:30:00,
2013-02-24 15:40:00,-7.9,-19.4,29.55,NNE,19,0.0,0.0,56,0.00,,,0.00,Wunderground v.1.15,2013-02-25 00:40:00,
2013-02-24 15:45:00,-7.5,-19.4,29.56,NNE,19,0.0,0.0,55,0.00,,,0.00,Wunderground v.1.15,2013-02-25 00:45:00,
2013-02-24 15:50:00,-7.5,-19.4,29.56,NNE,19,0.0,0.0,55,0.00,,,0.00,Wunderground v.1.15,2013-02-25 00:50:00,
2013-02-24 16:00:00,-6.5,-18.8,29.56,NNE,19,0.0,0.0,54,0.00,,,0.00,Wunderground v.1.15,2013-02-25 01:00:00,
2013-02-24 16:10:00,-4.8,-18.0,29.56,NNE,19,0.0,0.0,52,0.00,,,0.00,Wunderground v.1.15,2013-02-25 01:10:00,
2013-02-24 16:20:00,-7.0,-19.3,29.56,NNE,19,0.0,0.0,54,0.00,,,0.00,Wunderground v.1.15,2013-02-25 01:20:00,
2013-02-24 16:30:00,-7.5,-19.1,29.56,NNE,19,0.0,0.0,56,0.00,,,0.00,Wunderground v.1.15,2013-02-25 01:30:00,
2013-02-24 16:40:00,-6.5,-18.1,29.56,NNE,19,0.0,0.0,56,0.00,,,0.00,Wunderground v.1.15,2013-02-25 01:40:00,
2013-02-24 16:50:00,-5.9,-17.9,29.56,NNE,19,0.0,0.0,55,0.00,,,0.00,Wunderground v.1.15,2013-02-25 01:50:00,
2013-02-24 17:00:00,-6.8,-18.8,29.56,NNE,19,0.0,0.0,55,0.00,,,0.00,Wunderground v.1.15,2013-02-25 02:00:00,
2013-02-24 17:10:00,-6.8,-18.4,29.56,NNE,19,0.0,0.0,56,0.00,,,0.00,Wunderground v.1.15,2013-02-25 02:10:00,
2013-02-24 17:15:00,-6.5,-18.1,29.57,NNE,19,0.0,0.0,56,0.00,,,0.00,Wunderground v.1.15,2013-02-25 02:15:00,
2013-02-24 17:25:00,-6.5,-18.5,29.57,NNE,19,0.0,0.0,55,0.00,,,0.00,Wunderground v.1.15,2013-02-25 02:25:00,
2013-02-24 17:30:00,-6.3,-18.3,29.57,NNE,19,0.0,0.0,55,0.00,,,0.00,Wunderground v.1.15,2013-02-25 02:30:00,
2013-02-24 17:40:00,-5.0,-18.2,29.57,NNE,19,0.0,0.0,52,0.00,,,0.00,Wunderground v.1.15,2013-02-25 02:40:00,
2013-02-24 17:50:00,-6.3,-19.0,29.58,NNE,19,0.0,0.0,53,0.00,,,0.00,Wunderground v.1.15,2013-02-25 02:50:00,
2013-02-24 18:00:00,-8.4,-20.3,29.58,NNE,19,0.0,0.0,55,0.00,,,0.00,Wunderground v.1.15,2013-02-25 03:00:00,
2013-02-24 18:10:00,-11.2,-21.9,29.58,NNE,19,0.0,0.0,58,0.00,,,0.00,Wunderground v.1.15,2013-02-25 03:10:00,
2013-02-24 18:20:00,-13.3,-23.9,29.58,NNE,19,0.0,0.0,58,0.00,,,0.00,Wunderground v.1.15,2013-02-25 03:20:00,
2013-02-24 18:30:00,-14.0,-23.3,29.58,NNE,19,0.0,0.0,62,0.00,,,0.00,Wunderground v.1.15,2013-02-25 03:30:00,
2013-02-24 18:40:00,-15.1,-24.3,29.58,NNE,19,0.0,0.0,62,0.00,,,0.00,Wunderground v.1.15,2013-02-25 03:40:00,
2013-02-24 18:50:00,-16.4,-25.3,29.59,NNE,19,0.0,0.0,63,0.00,,,0.00,Wunderground v.1.15,2013-02-25 03:50:00,
2013-02-24 19:00:00,-16.9,-25.2,29.59,NNE,19,0.0,0.0,65,0.00,,,0.00,Wunderground v.1.15,2013-02-25 04:00:00,
2013-02-24 19:10:00,-16.4,-24.4,29.59,NNE,19,1.0,1.0,66,0.00,,,0.00,Wunderground v.1.15,2013-02-25 04:10:00,
2013-02-24 19:20:00,-17.2,-25.2,29.60,NNE,19,1.0,1.0,66,0.00,,,0.00,Wunderground v.1.15,2013-02-25 04:20:00,
2013-02-24 19:30:00,-17.2,-25.2,29.60,NNE,19,0.0,0.0,66,0.00,,,0.00,Wunderground v.1.15,2013-02-25 04:30:00,
2013-02-24 19:35:00,-17.5,-25.5,29.60,NNE,19,0.0,0.0,66,0.00,,,0.00,Wunderground v.1.15,2013-02-25 04:35:00,
2013-02-24 19:45:00,-18.7,-26.0,29.61,NNE,19,1.0,2.0,68,0.00,,,0.00,Wunderground v.1.15,2013-02-25 04:45:00,
2013-02-24 19:55:00,-19.0,-26.6,29.61,NNE,19,0.0,0.0,67,0.00,,,0.00,Wunderground v.1.15,2013-02-25 04:55:00,
2013-02-24 20:00:00,-19.6,-27.5,29.61,NNE,19,0.0,0.0,66,0.00,,,0.00,Wunderground v.1.15,2013-02-25 05:00:00,
2013-02-24 20:05:00,-20.5,-28.3,29.61,NNE,19,0.0,0.0,66,0.00,,,0.00,Wunderground v.1.15,2013-02-25 05:05:00,
2013-02-24 20:10:00,-20.8,-28.6,29.61,NNE,19,0.0,0.0,66,0.00,,,0.00,Wunderground v.1.15,2013-02-25 05:10:00,
2013-02-24 20:15:00,-20.8,-28.6,29.61,NNE,19,0.0,0.0,66,0.00,,,0.00,Wunderground v.1.15,2013-02-25 05:15:00,
2013-02-24 20:25:00,-21.4,-29.2,29.61,NNE,19,0.0,0.0,66,0.00,,,0.00,Wunderground v.1.15,2013-02-25 05:25:00,
2013-02-24 20:35:00,-21.4,-28.9,29.61,NNE,19,0.0,0.0,67,0.00,,,0.00,Wunderground v.1.15,2013-02-25 05:35:00,
2013-02-24 20:45:00,-20.2,-27.5,29.61,NNE,19,1.0,2.0,68,0.00,,,0.00,Wunderground v.1.15,2013-02-25 05:45:00,
2013-02-24 20:55:00,-19.6,-27.2,29.61,NNE,19,2.0,2.0,67,0.00,,,0.00,Wunderground v.1.15,2013-02-25 05:55:00,
2013-02-24 21:05:00,-19.9,-27.8,29.62,NNE,19,1.0,2.0,66,0.00,,,0.00,Wunderground v.1.15,2013-02-25 06:05:00,
2013-02-24 21:15:00,-20.5,-28.3,29.62,NNE,19,1.0,1.0,66,0.00,,,0.00,Wunderground v.1.15,2013-02-25 06:15:00,
2013-02-24 21:20:00,-20.8,-28.6,29.62,NNE,19,1.0,1.0,66,0.00,,,0.00,Wunderground v.1.15,2013-02-25 06:20:00,
2013-02-24 21:30:00,-20.8,-28.6,29.63,NNE,19,1.0,1.0,66,0.00,,,0.00,Wunderground v.1.15,2013-02-25 06:30:00,
2013-02-24 21:40:00,-21.7,-29.8,29.63,NNE,19,0.0,0.0,65,0.00,,,0.00,Wunderground v.1.15,2013-02-25 06:40:00,
2013-02-24 21:45:00,-22.3,-30.6,29.63,NNE,19,0.0,0.0,64,0.00,,,0.00,Wunderground v.1.15,2013-02-25 06:45:00,
2013-02-24 21:55:00,-23.6,-31.9,29.63,NNE,19,0.0,0.0,64,0.00,,,0.00,Wunderground v.1.15,2013-02-25 06:55:00,
2013-02-24 22:05:00,-24.2,-32.2,29.64,NNE,19,0.0,0.0,65,0.00,,,0.00,Wunderground v.1.15,2013-02-25 07:05:00,
2013-02-24 22:15:00,-23.6,-31.3,29.64,NNE,19,0.0,0.0,66,0.00,,,0.00,Wunderground v.1.15,2013-02-25 07:15:00,
2013-02-24 22:25:00,-24.2,-32.2,29.64,NNE,19,0.0,0.0,65,0.00,,,0.00,Wunderground v.1.15,2013-02-25 07:25:00,
2013-02-24 22:30:00,-24.9,-32.8,29.64,NNE,19,0.0,0.0,65,0.00,,,0.00,Wunderground v.1.15,2013-02-25 07:30:00,
2013-02-24 22:40:00,-25.3,-33.2,29.64,NNE,19,0.0,0.0,65,0.00,,,0.00,Wunderground v.1.15,2013-02-25 07:40:00,
2013-02-24 22:50:00,-25.6,-33.5,29.64,NNE,19,0.0,0.0,65,0.00,,,0.00,Wunderground v.1.15,2013-02-25 07:50:00,
2013-02-24 23:00:00,-24.2,-31.6,29.65,NNE,19,0.0,0.0,67,0.00,,,0.00,Wunderground v.1.15,2013-02-25 08:00:00,
2013-02-24 23:10:00,-24.6,-32.3,29.65,NNE,19,0.0,0.0,66,0.00,,,0.00,Wunderground v.1.15,2013-02-25 08:10:00,
2013-02-24 23:15:00,-24.9,-32.8,29.65,NNE,19,0.0,1.0,65,0.00,,,0.00,Wunderground v.1.15,2013-02-25 08:15:00,
2013-02-24 23:25:00,-25.6,-33.2,29.65,NNE,19,1.0,1.0,66,0.00,,,0.00,Wunderground v.1.15,2013-02-25 08:25:00,
2013-02-24 23:35:00,-24.9,-32.6,29.66,NNE,19,0.0,0.0,66,0.00,,,0.00,Wunderground v.1.15,2013-02-25 08:35:00,
2013-02-24 23:40:00,-24.9,-32.6,29.66,NNE,19,0.0,0.0,66,0.00,,,0.00,Wunderground v.1.15,2013-02-25 08:40:00,
2013-02-24 23:50:00,-25.6,-33.5,29.66,NNE,19,0.0,0.0,65,0.00,,,0.00,Wunderground v.1.15,2013-02-25 08:50:00,